Weather WX

World > North America > United States > Minnesota

Warman, Minnesota Regional Weather

Lat: 46.06N, Lon: 93.28W
Wx Zone: MNZ045
Warning FLW WEATHER ALERT - (More Info. Click Here) Warning
Feedback

Warman, MN Regional Weather

Expires:201906201400;;785343
ASUS43 KMPX 201310
RWRMN 
WEATHER ROUNDUP FOR MINNESOTA
NATIONAL WEATHER SERVICE TWIN CITIES/CHANHASSEN MN
800 AM CDT THU JUN 20 2019


NOTE: "FAIR" INDICATES FEW OR NO CLOUDS BELOW 12,000 FEET WITH NO
SIGNIFICANT WEATHER AND/OR OBSTRUCTIONS TO VISIBILITY. N/A MEANS
CURRENT SKY AND/OR WEATHER CONDITIONS ARE NOT AVAILABLE.


MNZ037-044-045-052-053-201400-
   East Central Minnesota   
  
CITY           SKY/WX    TMP DP  RH WIND       PRES   REMARKS
PRINCETON      FAIR      61  52  72 E7        29.80R                  
MORA           FAIR      61  46  59 E8        29.84R                  
CAMBRIDGE      FAIR      64  48  55 E7        29.81R                  
RUSH CITY      FAIR      62  48  60 E3        29.82R                  
MOOSE LAKE     FAIR      55  46  71 NE5       29.83R                  
HINCKLEY       FAIR      61  50  67 E5        29.83R                  
CLOQUET        FAIR      57  46  67 E7        29.84F                  
MCGREGOR       FAIR      57  46  67 E9        29.84S                  
$$

SKY/WX - Weather  TMP - Temperature  DP - Dew Point  RH - Relative Humidity
WIND - Wind Direction/Speed PRES - Barometric Pressure VSB - Visibility
WCI - Wind Chill Index E13G22 Wind - East Wind 13 mph/Gusts of 22 mph